Check out our new BloomSky Weather System.

Active alerts

Houston, TX
  Details for Houston, TX Areal Flood Advisory


Thunder radar  blitzortung!


Rain radar more information rain snow radar


Visit our other weather sites:

Template documentation
and downloads

And another site



Weather Underground History page Text

Daily Summary for April 23, 2017 Units:  Metric    English   Both
« Previous Day
Next Day »
Daily Weekly Monthly Yearly Custom
  High: Low: Average:
Temperature: -17.8 °C 11.3 °C 16.6 °C
Dew Point: -17.8 °C 7.2 °C 9.6 °C
Humidity: Humidity % 47 % 64 %
Wind Speed: 0 km/h 0 km/h 6.8 km/h
Wind Gust: 0 km/h - -
Wind:- - WNW
Pressure: 0 hPa 1014.4 hPa -
Precipitation: 0 mm    
Historical Graphs
 
 
Tabular Data for April 23, 2017
Time Temperature Dew Point Pressure Wind Wind Speed Wind Gust Humidity Rainfall Rate (Hourly)
-17.8 °C -17.8 °C 0 hPa Calm     Humidity % 0 mm
00:01 15.7 °C 10.2 °C 1018.2 hPa North 6.4 km/h 35.4 km/h 70 % 0 mm
00:06 15.7 °C 10.2 °C 1017.8 hPa WNW 3.2 km/h 27.4 km/h 70 % 0 mm
00:11 15.6 °C 9.9 °C 1018.2 hPa NW 3.2 km/h 24.1 km/h 69 % 0 mm
00:16 15.6 °C 9.9 °C 1017.8 hPa NW 6.4 km/h 19.3 km/h 69 % 0 mm
00:18 15.6 °C 9.9 °C 1018.2 hPa WNW 8 km/h 19.3 km/h 69 % 0 mm
00:23 15.6 °C 9.9 °C 1018.2 hPa NW 6.4 km/h 22.5 km/h 69 % 0 mm
00:28 15.6 °C 9.7 °C 1018.2 hPa West 6.4 km/h 22.5 km/h 68 % 0 mm
00:33 15.5 °C 9.6 °C 1018.2 hPa NNW 4.8 km/h 22.5 km/h 68 % 0 mm
00:38 15.4 °C 9.5 °C 1018.2 hPa NNW 9.7 km/h 22.5 km/h 68 % 0 mm
00:43 15.4 °C 9.5 °C 1018.2 hPa WSW 6.4 km/h 22.5 km/h 68 % 0 mm
00:48 15.4 °C 9.5 °C 1018.2 hPa NNW 4.8 km/h 20.9 km/h 68 % 0 mm
00:53 15.4 °C 9.3 °C 1018.2 hPa NW 6.4 km/h 20.9 km/h 67 % 0 mm
00:58 15.3 °C 9.2 °C 1018.2 hPa NNW 8 km/h 20.9 km/h 67 % 0 mm
01:03 15.2 °C 9.1 °C 1018.2 hPa NNW 11.3 km/h 22.5 km/h 67 % 0 mm
01:08 15.2 °C 9.1 °C 1018.2 hPa WNW 8 km/h 22.5 km/h 67 % 0 mm
01:13 15.1 °C 9 °C 1018.2 hPa NW 14.5 km/h 22.5 km/h 67 % 0 mm
01:18 15.1 °C 9 °C 1017.8 hPa NW 8 km/h 19.3 km/h 67 % 0 mm
01:23 15 °C 8.9 °C 1017.8 hPa NW 14.5 km/h 22.5 km/h 67 % 0 mm
01:28 15 °C 9.1 °C 1017.8 hPa NW 6.4 km/h 22.5 km/h 68 % 0 mm
01:33 14.9 °C 9 °C 1017.8 hPa WNW 12.9 km/h 24.1 km/h 68 % 0 mm
01:38 14.9 °C 9 °C 1018.2 hPa NW 6.4 km/h 24.1 km/h 68 % 0 mm
01:43 14.8 °C 8.7 °C 1017.8 hPa NNW 11.3 km/h 24.1 km/h 67 % 0 mm
01:48 14.7 °C 8.4 °C 1017.8 hPa WNW 9.7 km/h 19.3 km/h 66 % 0 mm
01:53 14.6 °C 8.5 °C 1017.8 hPa NNW 11.3 km/h 19.3 km/h 67 % 0 mm
01:58 14.5 °C 8.4 °C 1017.8 hPa NW 12.9 km/h 19.3 km/h 67 % 0 mm
02:03 14.4 °C 8.6 °C 1017.8 hPa NW 3.2 km/h 19.3 km/h 68 % 0 mm
02:08 14.3 °C 8.5 °C 1017.8 hPa NNW 9.7 km/h 16.1 km/h 68 % 0 mm
02:13 14.2 °C 8.4 °C 1018.2 hPa NW 9.7 km/h 24.1 km/h 68 % 0 mm
02:18 14.1 °C 8.3 °C 1017.8 hPa WNW 6.4 km/h 24.1 km/h 68 % 0 mm
02:23 14.1 °C 8.3 °C 1017.8 hPa NW 9.7 km/h 24.1 km/h 68 % 0 mm
02:29 14 °C 8.4 °C 1017.8 hPa WNW 3.2 km/h 24.1 km/h 69 % 0 mm
02:34 13.9 °C 8.3 °C 1017.8 hPa NNW 12.9 km/h 24.1 km/h 69 % 0 mm
02:39 13.9 °C 8.3 °C 1017.8 hPa NW 8 km/h 17.7 km/h 69 % 0 mm
02:44 13.8 °C 8.2 °C 1017.8 hPa NW 9.7 km/h 20.9 km/h 69 % 0 mm
02:49 13.8 °C 8 °C 1017.5 hPa NNW 8 km/h 20.9 km/h 68 % 0 mm
02:54 13.8 °C 8.2 °C 1017.5 hPa NW 8 km/h 20.9 km/h 69 % 0 mm
02:59 13.7 °C 8.1 °C 1017.5 hPa NNW 9.7 km/h 17.7 km/h 69 % 0 mm
03:04 13.7 °C 8.1 °C 1017.5 hPa NNW 4.8 km/h 17.7 km/h 69 % 0 mm
03:09 13.6 °C 8 °C 1017.5 hPa NW 4.8 km/h 17.7 km/h 69 % 0 mm
03:14 13.6 °C 8 °C 1017.5 hPa NW 6.4 km/h 16.1 km/h 69 % 0 mm
03:19 13.6 °C 8 °C 1017.5 hPa NNW 3.2 km/h 14.5 km/h 69 % 0 mm
03:24 13.6 °C 8.2 °C 1017.5 hPa NW 3.2 km/h 11.3 km/h 70 % 0 mm
03:29 13.5 °C 8.1 °C 1017.5 hPa NW 3.2 km/h 11.3 km/h 70 % 0 mm
03:34 13.5 °C 8.3 °C 1017.5 hPa NNW 3.2 km/h 11.3 km/h 71 % 0 mm
03:39 13.4 °C 8.5 °C 1017.5 hPa NW 4.8 km/h 8 km/h 72 % 0 mm
03:44 13.4 °C 8.2 °C 1017.5 hPa NW 6.4 km/h 8 km/h 71 % 0 mm
03:49 13.4 °C 8.2 °C 1017.5 hPa NNW 6.4 km/h 14.5 km/h 71 % 0 mm
03:54 13.3 °C 7.9 °C 1017.5 hPa NW 8 km/h 14.5 km/h 70 % 0 mm
03:59 13.3 °C 7.7 °C 1017.5 hPa NW 6.4 km/h 19.3 km/h 69 % 0 mm
04:04 13.3 °C 7.7 °C 1017.5 hPa NW 9.7 km/h 19.3 km/h 69 % 0 mm
04:09 13.2 °C 7.4 °C 1017.8 hPa NW 20.9 km/h 20.9 km/h 68 % 0 mm
04:14 13.2 °C 7.4 °C 1017.8 hPa NNW 6.4 km/h 24.1 km/h 68 % 0 mm
04:19 13.1 °C 7.5 °C 1017.5 hPa NW 6.4 km/h 24.1 km/h 69 % 0 mm
04:24 12.9 °C 7.3 °C 1017.5 hPa NW 8 km/h 24.1 km/h 69 % 0 mm
04:29 12.9 °C 7.3 °C 1017.5 hPa NW 9.7 km/h 24.1 km/h 69 % 0 mm
04:34 12.8 °C 7.3 °C 1017.8 hPa NNW 9.7 km/h 25.7 km/h 69 % 0 mm
04:39 12.7 °C 7.4 °C 1017.8 hPa NNW 14.5 km/h 25.7 km/h 70 % 0 mm
04:44 12.7 °C 7.4 °C 1017.8 hPa WNW 9.7 km/h 29 km/h 70 % 0 mm
04:49 12.6 °C 7.3 °C 1017.8 hPa WNW 8 km/h 29 km/h 70 % 0 mm
04:54 12.5 °C 7.4 °C 1017.8 hPa NNW 11.3 km/h 29 km/h 71 % 0 mm
04:59 12.4 °C 7.5 °C 1017.8 hPa NW 9.7 km/h 19.3 km/h 72 % 0 mm
05:04 12.4 °C 7.5 °C 1017.8 hPa NNW 4.8 km/h 14.5 km/h 72 % 0 mm
05:09 12.4 °C 7.5 °C 1017.8 hPa NW 6.4 km/h 12.9 km/h 72 % 0 mm
05:14 12.5 °C 7.6 °C 1017.8 hPa NW 8 km/h 19.3 km/h 72 % 0 mm
05:19 12.6 °C 7.5 °C 1017.8 hPa NW 19.3 km/h 19.3 km/h 71 % 0 mm
05:24 12.7 °C 7.4 °C 1017.8 hPa NNW 11.3 km/h 24.1 km/h 70 % 0 mm
05:29 12.7 °C 7.6 °C 1017.8 hPa NNW 11.3 km/h 24.1 km/h 71 % 0 mm
05:34 12.7 °C 7.4 °C 1017.8 hPa NW 9.7 km/h 24.1 km/h 70 % 0 mm
05:39 12.7 °C 7.4 °C 1017.8 hPa NW 6.4 km/h 19.3 km/h 70 % 0 mm
05:44 12.6 °C 7.3 °C 1017.8 hPa NW 6.4 km/h 22.5 km/h 70 % 0 mm
05:49 12.5 °C 7.4 °C 1017.8 hPa NW 6.4 km/h 22.5 km/h 71 % 0 mm
05:54 12.4 °C 7.3 °C 1017.8 hPa WNW 6.4 km/h 22.5 km/h 71 % 0 mm
05:59 12.3 °C 7.2 °C 1017.8 hPa NW 11.3 km/h 16.1 km/h 71 % 0 mm
06:04 12.3 °C 7.2 °C 1017.8 hPa NNE 4.8 km/h 17.7 km/h 71 % 0 mm
06:09 12.2 °C 7.3 °C 1017.8 hPa NNW 8 km/h 22.5 km/h 72 % 0 mm
06:14 12.1 °C 7.2 °C 1017.8 hPa NW 6.4 km/h 22.5 km/h 72 % 0 mm
06:19 12 °C 7.3 °C 1017.8 hPa North 16.1 km/h 22.5 km/h 73 % 0 mm
06:24 11.9 °C 7.2 °C 1017.8 hPa NNW 3.2 km/h 16.1 km/h 73 % 0 mm
06:29 11.8 °C 7.3 °C 1018.2 hPa NW 1.6 km/h 16.1 km/h 74 % 0 mm
06:34 11.8 °C 7.3 °C 1018.2 hPa NW 3.2 km/h 16.1 km/h 74 % 0 mm
06:39 11.7 °C 7.4 °C 1018.2 hPa Calm   11.3 km/h 75 % 0 mm
06:44 11.6 °C 7.5 °C 1018.2 hPa Calm   9.7 km/h 76 % 0 mm
06:49 11.4 °C 7.5 °C 1018.2 hPa NW 1.6 km/h 8 km/h 77 % 0 mm
06:54 11.4 °C 7.7 °C 1018.2 hPa NW 1.6 km/h 8 km/h 78 % 0 mm
06:59 11.4 °C 7.7 °C 1018.2 hPa NW 1.6 km/h 8 km/h 78 % 0 mm
07:04 11.3 °C 7.8 °C 1018.2 hPa NW 4.8 km/h 8 km/h 79 % 0 mm
07:09 11.3 °C 7.8 °C 1018.5 hPa Calm   6.4 km/h 79 % 0 mm
07:14 11.3 °C 8 °C 1018.5 hPa WNW 1.6 km/h 6.4 km/h 80 % 0 mm
07:19 11.3 °C 8 °C 1018.5 hPa NW 1.6 km/h 6.4 km/h 80 % 0 mm
07:24 11.4 °C 8.1 °C 1018.5 hPa NW 3.2 km/h 4.8 km/h 80 % 0 mm
07:29 11.4 °C 8.1 °C 1018.5 hPa NNW 3.2 km/h 4.8 km/h 80 % 0 mm
07:35 11.6 °C 8.1 °C 1018.5 hPa NNW 1.6 km/h 6.4 km/h 79 % 0 mm
07:40 11.9 °C 8.4 °C 1018.8 hPa WNW 1.6 km/h 8 km/h 79 % 0 mm
07:50 12.3 °C 8.4 °C 1018.8 hPa NW 3.2 km/h 9.7 km/h 77 % 0 mm
07:55 12.4 °C 8.5 °C 1018.8 hPa NW 3.2 km/h 9.7 km/h 77 % 0 mm
08:00 12.6 °C 8.5 °C 1018.8 hPa NW 4.8 km/h 9.7 km/h 76 % 0 mm
08:05 12.7 °C 8.8 °C 1018.8 hPa NW 3.2 km/h 11.3 km/h 77 % 0 mm
08:10 12.9 °C 8.8 °C 1018.8 hPa NNW 3.2 km/h 11.3 km/h 76 % 0 mm
08:15 13.1 °C 9 °C 1018.8 hPa NW 4.8 km/h 11.3 km/h 76 % 0 mm
08:20 13.2 °C 8.9 °C 1018.8 hPa NNW 6.4 km/h 9.7 km/h 75 % 0 mm
08:25 13.3 °C 9 °C 1018.8 hPa NW 4.8 km/h 11.3 km/h 75 % 0 mm
08:30 13.5 °C 9.2 °C 1018.8 hPa NNE 3.2 km/h 11.3 km/h 75 % 0 mm
08:35 13.8 °C 9.2 °C 1018.8 hPa NNW 6.4 km/h 11.3 km/h 74 % 0 mm
08:40 14 °C 9.4 °C 1018.8 hPa NNW 4.8 km/h 12.9 km/h 74 % 0 mm
08:45 14.1 °C 9.3 °C 1019.2 hPa NW 8 km/h 16.1 km/h 73 % 0 mm
08:50 14.3 °C 9.7 °C 1018.8 hPa NW 3.2 km/h 16.1 km/h 74 % 0 mm
08:55 14.6 °C 9.4 °C 1018.8 hPa NNW 9.7 km/h 16.1 km/h 71 % 0 mm
09:00 14.7 °C 9.3 °C 1018.8 hPa NW 12.9 km/h 20.9 km/h 70 % 0 mm
09:05 14.7 °C 9.1 °C 1018.8 hPa NNW 9.7 km/h 20.9 km/h 69 % 0 mm
09:10 14.7 °C 8.9 °C 1018.8 hPa WSW 4.8 km/h 20.9 km/h 68 % 0 mm
09:15 14.8 °C 9 °C 1018.8 hPa WNW 6.4 km/h 20.9 km/h 68 % 0 mm
09:20 14.9 °C 9 °C 1019.2 hPa North 11.3 km/h 20.9 km/h 68 % 0 mm
09:25 15.2 °C 9.1 °C 1019.2 hPa NW 8 km/h 16.1 km/h 67 % 0 mm
09:30 15.1 °C 9 °C 1019.2 hPa North 8 km/h 17.7 km/h 67 % 0 mm
09:35 15.2 °C 8.9 °C 1019.2 hPa North 14.5 km/h 19.3 km/h 66 % 0 mm
09:40 15.2 °C 8.9 °C 1019.2 hPa NW 12.9 km/h 19.3 km/h 66 % 0 mm
09:45 15.3 °C 9 °C 1019.2 hPa WNW 9.7 km/h 22.5 km/h 66 % 0 mm
09:50 15.6 °C 9 °C 1018.8 hPa NW 9.7 km/h 24.1 km/h 65 % 0 mm
10:00 15.8 °C 9 °C 1019.2 hPa WSW 3.2 km/h 24.1 km/h 64 % 0 mm
10:05 16 °C 9.4 °C 1019.2 hPa NW 11.3 km/h 24.1 km/h 65 % 0 mm
10:11 16 °C 9 °C 1019.2 hPa NW 6.4 km/h 24.1 km/h 63 % 0 mm
10:16 16.2 °C 9.6 °C 1019.2 hPa NNW 11.3 km/h 20.9 km/h 65 % 0 mm
10:21 16.2 °C 8.9 °C 1019.2 hPa WNW 9.7 km/h 22.5 km/h 62 % 0 mm
10:23 16.2 °C 9.1 °C 1019.2 hPa NW 12.9 km/h 22.5 km/h 63 % 0 mm
10:28 16.2 °C 8.9 °C 1019.2 hPa NW 6.4 km/h 22.5 km/h 62 % 0 mm
10:33 16.4 °C 9.3 °C 1019.2 hPa North 6.4 km/h 22.5 km/h 63 % 0 mm
10:38 16.6 °C 9.3 °C 1019.2 hPa North 14.5 km/h 20.9 km/h 62 % 0 mm
10:43 16.7 °C 9.4 °C 1019.2 hPa NNW 17.7 km/h 19.3 km/h 62 % 0 mm
10:48 16.9 °C 9.6 °C 1019.2 hPa NW 8 km/h 22.5 km/h 62 % 0 mm
10:53 17 °C 9.4 °C 1019.2 hPa NNE 17.7 km/h 22.5 km/h 61 % 0 mm
10:58 17.1 °C 9.8 °C 1019.2 hPa NNW 3.2 km/h 24.1 km/h 62 % 0 mm
11:03 17.3 °C 9.7 °C 1019.2 hPa NW 6.4 km/h 24.1 km/h 61 % 0 mm
11:08 17.4 °C 10 °C 1019.2 hPa North 12.9 km/h 24.1 km/h 62 % 0 mm
11:13 17.6 °C 10 °C 1019.2 hPa NW 8 km/h 22.5 km/h 61 % 0 mm
11:18 17.6 °C 9.7 °C 1019.2 hPa NNW 8 km/h 19.3 km/h 60 % 0 mm
11:23 17.5 °C 9.9 °C 1018.8 hPa NW 8 km/h 19.3 km/h 61 % 0 mm
11:28 17.2 °C 9.6 °C 1019.2 hPa North 9.7 km/h 19.3 km/h 61 % 0 mm
11:33 17.4 °C 10 °C 1019.2 hPa NW 11.3 km/h 19.3 km/h 62 % 0 mm
11:38 17.7 °C 10.1 °C 1018.8 hPa NNW 3.2 km/h 19.3 km/h 61 % 0 mm
11:43 17.8 °C 10.2 °C 1018.8 hPa NNW 6.4 km/h 19.3 km/h 61 % 0 mm
11:48 17.8 °C 9.7 °C 1018.8 hPa NNW 4.8 km/h 19.3 km/h 59 % 0 mm
11:53 17.8 °C 9.7 °C 1018.8 hPa NW 16.1 km/h 22.5 km/h 59 % 0 mm
11:58 17.8 °C 9.7 °C 1018.8 hPa NNW 6.4 km/h 29 km/h 59 % 0 mm
12:03 18 °C 9.9 °C 1018.8 hPa NW 12.9 km/h 29 km/h 59 % 0 mm
12:08 18.1 °C 9.7 °C 1018.8 hPa NNW 12.9 km/h 29 km/h 58 % 0 mm
12:13 18.3 °C 10.1 °C 1018.8 hPa NW 12.9 km/h 25.7 km/h 59 % 0 mm
12:18 18.4 °C 10.5 °C 1018.8 hPa NNW 19.3 km/h 25.7 km/h 60 % 0 mm
12:23 18.4 °C 10.5 °C 1018.5 hPa NNW 9.7 km/h 22.5 km/h 60 % 0 mm
12:28 18.6 °C 10.7 °C 1018.5 hPa NW 6.4 km/h 20.9 km/h 60 % 0 mm
12:33 18.9 °C 10.7 °C 1018.2 hPa NNW 8 km/h 22.5 km/h 59 % 0 mm
12:38 18.8 °C 10.4 °C 1018.2 hPa NNW 6.4 km/h 22.5 km/h 58 % 0 mm
12:43 19.2 °C 11.2 °C 1018.2 hPa NW 9.7 km/h 22.5 km/h 60 % 0 mm
12:48 18.9 °C 10.7 °C 1018.2 hPa NNW 8 km/h 25.7 km/h 59 % 0 mm
12:53 19.1 °C 10.6 °C 1018.2 hPa NNW 8 km/h 25.7 km/h 58 % 0 mm
12:58 19.1 °C 10.6 °C 1017.8 hPa North 9.7 km/h 25.7 km/h 58 % 0 mm
13:03 18.9 °C 10.5 °C 1017.8 hPa NNW 4.8 km/h 22.5 km/h 58 % 0 mm
13:08 19.1 °C 10.9 °C 1017.8 hPa NNW 17.7 km/h 24.1 km/h 59 % 0 mm
13:13 19.2 °C 10.7 °C 1017.8 hPa NW 9.7 km/h 24.1 km/h 58 % 0 mm
13:18 19.2 °C 10.7 °C 1017.8 hPa North 11.3 km/h 24.1 km/h 58 % 0 mm
13:23 19.3 °C 10.8 °C 1017.8 hPa NW 9.7 km/h 24.1 km/h 58 % 0 mm
13:28 19.4 °C 11.2 °C 1017.5 hPa NNE 8 km/h 24.1 km/h 59 % 0 mm
13:33 19.7 °C 10.9 °C 1017.5 hPa NNW 12.9 km/h 22.5 km/h 57 % 0 mm
13:38 20.1 °C 11 °C 1017.5 hPa WNW 11.3 km/h 22.5 km/h 56 % 0 mm
13:43 19.8 °C 10.8 °C 1017.5 hPa NNW 14.5 km/h 20.9 km/h 56 % 0 mm
13:48 19.9 °C 11.4 °C 1017.5 hPa North 19.3 km/h 20.9 km/h 58 % 0 mm
13:53 19.8 °C 11 °C 1017.5 hPa West 6.4 km/h 20.9 km/h 57 % 0 mm
13:58 19.8 °C 11.3 °C 1017.5 hPa NW 9.7 km/h 27.4 km/h 58 % 0 mm
14:03 19.9 °C 10.9 °C 1017.5 hPa NNW 11.3 km/h 27.4 km/h 56 % 0 mm
14:08 20.2 °C 11.4 °C 1017.2 hPa NNW 6.4 km/h 27.4 km/h 57 % 0 mm
14:13 20.3 °C 11 °C 1017.5 hPa NW 3.2 km/h 22.5 km/h 55 % 0 mm
14:18 20.2 °C 11.4 °C 1017.2 hPa NNW 3.2 km/h 22.5 km/h 57 % 0 mm
14:23 20.2 °C 10.9 °C 1017.2 hPa NNW 4.8 km/h 17.7 km/h 55 % 0 mm
14:28 20.5 °C 11.7 °C 1016.8 hPa NW 14.5 km/h 17.7 km/h 57 % 0 mm
14:33 20.6 °C 11.5 °C 1016.8 hPa NW 8 km/h 22.5 km/h 56 % 0 mm
14:38 20.9 °C 11.8 °C 1016.8 hPa NNW 11.3 km/h 22.5 km/h 56 % 0 mm
14:43 21.1 °C 11.7 °C 1016.8 hPa NW 4.8 km/h 22.5 km/h 55 % 0 mm
14:48 21 °C 11.3 °C 1016.8 hPa NW 9.7 km/h 19.3 km/h 54 % 0 mm
14:53 20.7 °C 11.3 °C 1016.5 hPa NW 12.9 km/h 19.3 km/h 55 % 0 mm
14:58 20.6 °C 11.5 °C 1016.5 hPa NNW 3.2 km/h 19.3 km/h 56 % 0 mm
15:03 20.8 °C 11.7 °C 1016.5 hPa NNW 9.7 km/h 19.3 km/h 56 % 0 mm
15:08 20.9 °C 11.5 °C 1016.5 hPa NW 6.4 km/h 19.3 km/h 55 % 0 mm
15:13 21.2 °C 11.5 °C 1016.5 hPa North 8 km/h 19.3 km/h 54 % 0 mm
15:18 21.1 °C 10.9 °C 1016.1 hPa NNE 9.7 km/h 19.3 km/h 52 % 0 mm
15:23 21.2 °C 11.2 °C 1016.1 hPa North 14.5 km/h 20.9 km/h 53 % 0 mm
15:28 21.3 °C 11.3 °C 1016.1 hPa North 12.9 km/h 20.9 km/h 53 % 0 mm
15:33 21.2 °C 11.8 °C 1016.1 hPa WNW 9.7 km/h 20.9 km/h 55 % 0 mm
15:38 21.2 °C 11.5 °C 1016.1 hPa West 14.5 km/h 20.9 km/h 54 % 0 mm
15:43 21.4 °C 12 °C 1016.1 hPa West 12.9 km/h 20.9 km/h 55 % 0 mm
15:49 21.4 °C 11.4 °C 1015.8 hPa NW 4.8 km/h 20.9 km/h 53 % 0 mm
15:54 21.7 °C 11.7 °C 1015.8 hPa NW 9.7 km/h 20.9 km/h 53 % 0 mm
15:59 21.3 °C 11.6 °C 1015.8 hPa NNW 11.3 km/h 20.9 km/h 54 % 0 mm
16:04 21.3 °C 11 °C 1015.8 hPa North 8 km/h 20.9 km/h 52 % 0 mm
16:09 21.5 °C 11.5 °C 1015.5 hPa NW 6.4 km/h 19.3 km/h 53 % 0 mm
16:14 21.7 °C 11.7 °C 1015.5 hPa NNW 17.7 km/h 19.3 km/h 53 % 0 mm
16:19 21.7 °C 11.1 °C 1015.5 hPa NNW 4.8 km/h 19.3 km/h 51 % 0 mm
16:24 21.7 °C 11.7 °C 1015.5 hPa WNW 8 km/h 19.3 km/h 53 % 0 mm
16:29 21.7 °C 11.4 °C 1015.5 hPa NNW 6.4 km/h 17.7 km/h 52 % 0 mm
16:34 21.7 °C 11.1 °C 1015.5 hPa NNW 9.7 km/h 17.7 km/h 51 % 0 mm
16:40 21.7 °C 11.1 °C 1015.5 hPa NW 8 km/h 22.5 km/h 51 % 0 mm
16:45 21.8 °C 11.2 °C 1015.1 hPa NW 11.3 km/h 22.5 km/h 51 % 0 mm
16:50 21.9 °C 11 °C 1015.1 hPa NNW 8 km/h 22.5 km/h 50 % 0 mm
16:55 21.9 °C 11.3 °C 1015.1 hPa NW 3.2 km/h 22.5 km/h 51 % 0 mm
17:00 22 °C 11.1 °C 1015.1 hPa NW 8 km/h 22.5 km/h 50 % 0 mm
17:05 22.1 °C 10.9 °C 1014.8 hPa WNW 6.4 km/h 22.5 km/h 49 % 0 mm
17:10 22.1 °C 10.9 °C 1014.8 hPa North 8 km/h 16.1 km/h 49 % 0 mm
17:15 22 °C 10.5 °C 1015.1 hPa NNW 3.2 km/h 16.1 km/h 48 % 0 mm
17:20 22.1 °C 10.6 °C 1014.8 hPa NW 16.1 km/h 17.7 km/h 48 % 0 mm
17:25 22.2 °C 10.7 °C 1014.8 hPa NW 8 km/h 17.7 km/h 48 % 0 mm
17:30 22.2 °C 10.7 °C 1015.1 hPa West 8 km/h 22.5 km/h 48 % 0 mm
17:35 22.2 °C 10.7 °C 1014.8 hPa NNW 6.4 km/h 22.5 km/h 48 % 0 mm
17:40 22.1 °C 10.3 °C 1014.8 hPa NNE 19.3 km/h 22.5 km/h 47 % 0 mm
17:45 22.2 °C 10.4 °C 1014.8 hPa NW 14.5 km/h 24.1 km/h 47 % 0 mm
17:50 22 °C 10.5 °C 1014.8 hPa North 12.9 km/h 24.1 km/h 48 % 0 mm
17:55 22.1 °C 10.6 °C 1014.8 hPa NNW 12.9 km/h 24.1 km/h 48 % 0 mm
18:00 22.1 °C 10.3 °C 1014.8 hPa NW 6.4 km/h 20.9 km/h 47 % 0 mm
18:05 22.1 °C 10.3 °C 1014.4 hPa NNW 4.8 km/h 20.9 km/h 47 % 0 mm
18:10 22.1 °C 10.3 °C 1014.4 hPa WNW 4.8 km/h 16.1 km/h 47 % 0 mm
18:15 22.1 °C 10.3 °C 1014.4 hPa NW 9.7 km/h 16.1 km/h 47 % 0 mm
18:20 22 °C 10.2 °C 1014.4 hPa West 4.8 km/h 19.3 km/h 47 % 0 mm
18:25 22 °C 10.2 °C 1014.8 hPa NW 4.8 km/h 19.3 km/h 47 % 0 mm
18:30 22 °C 10.5 °C 1014.8 hPa North 9.7 km/h 19.3 km/h 48 % 0 mm
18:35 22 °C 10.5 °C 1014.8 hPa NW 6.4 km/h 17.7 km/h 48 % 0 mm
18:40 22 °C 10.5 °C 1014.4 hPa NW 6.4 km/h 17.7 km/h 48 % 0 mm
18:45 22.1 °C 10.6 °C 1014.4 hPa NW 6.4 km/h 17.7 km/h 48 % 0 mm
18:50 22 °C 10.5 °C 1014.4 hPa NNW 3.2 km/h 14.5 km/h 48 % 0 mm
18:55 21.8 °C 10.6 °C 1014.4 hPa NNW 3.2 km/h 14.5 km/h 49 % 0 mm
19:00 21.9 °C 10.7 °C 1014.4 hPa North 6.4 km/h 14.5 km/h 49 % 0 mm
19:05 21.8 °C 10.6 °C 1014.8 hPa NW 8 km/h 14.5 km/h 49 % 0 mm
19:10 21.6 °C 10.7 °C 1014.8 hPa NW 3.2 km/h 16.1 km/h 50 % 0 mm
19:15 21.4 °C 10.5 °C 1014.8 hPa NW 6.4 km/h 16.1 km/h 50 % 0 mm
19:20 21.2 °C 10.7 °C 1014.8 hPa NNW 3.2 km/h 16.1 km/h 51 % 0 mm
19:25 21 °C 10.5 °C 1014.8 hPa NNW 11.3 km/h 14.5 km/h 51 % 0 mm
19:30 20.8 °C 10.3 °C 1014.8 hPa NW 1.6 km/h 14.5 km/h 51 % 0 mm
19:35 20.8 °C 10.6 °C 1014.8 hPa NW 4.8 km/h 14.5 km/h 52 % 0 mm
19:40 20.6 °C 10.7 °C 1014.8 hPa NW 4.8 km/h 12.9 km/h 53 % 0 mm
19:45 20.4 °C 10.5 °C 1014.8 hPa WNW 9.7 km/h 14.5 km/h 53 % 0 mm
19:50 20.2 °C 10.6 °C 1014.8 hPa NW 3.2 km/h 14.5 km/h 54 % 0 mm
19:55 20.1 °C 10.5 °C 1014.8 hPa North 4.8 km/h 14.5 km/h 54 % 0 mm
20:00 19.9 °C 10.3 °C 1014.8 hPa North 4.8 km/h 11.3 km/h 54 % 0 mm
20:05 19.8 °C 10.2 °C 1015.1 hPa NW 1.6 km/h 9.7 km/h 54 % 0 mm
20:10 19.7 °C 10.4 °C 1015.1 hPa NW 4.8 km/h 9.7 km/h 55 % 0 mm
20:15 19.6 °C 10.3 °C 1014.8 hPa Calm   9.7 km/h 55 % 0 mm
20:20 19.3 °C 10.3 °C 1015.1 hPa NW 3.2 km/h 6.4 km/h 56 % 0 mm
20:25 19.2 °C 10.5 °C 1015.1 hPa NW 1.6 km/h 6.4 km/h 57 % 0 mm
20:30 19.1 °C 10.4 °C 1015.1 hPa NNE 1.6 km/h 6.4 km/h 57 % 0 mm
20:35 18.9 °C 10.5 °C 1015.1 hPa Calm   6.4 km/h 58 % 0 mm
20:40 18.7 °C 10.3 °C 1015.1 hPa WNW 1.6 km/h 4.8 km/h 58 % 0 mm
20:45 18.6 °C 10.4 °C 1015.5 hPa Calm   3.2 km/h 59 % 0 mm
20:50 18.4 °C 10.2 °C 1015.5 hPa Calm   3.2 km/h 59 % 0 mm
20:55 18.1 °C 10 °C 1015.5 hPa Calm   1.6 km/h 59 % 0 mm
21:00 17.8 °C 9.9 °C 1015.5 hPa Calm   1.6 km/h 60 % 0 mm
21:05 17.6 °C 9.7 °C 1015.5 hPa Calm   1.6 km/h 60 % 0 mm
21:10 17.3 °C 9.9 °C 1015.5 hPa Calm   1.6 km/h 62 % 0 mm
21:15 17.1 °C 9.8 °C 1015.5 hPa Calm   1.6 km/h 62 % 0 mm
21:20 17 °C 10.1 °C 1015.5 hPa Calm   1.6 km/h 64 % 0 mm
21:25 17.2 °C 10.3 °C 1015.5 hPa Calm   1.6 km/h 64 % 0 mm
21:30 17.2 °C 10.3 °C 1015.5 hPa Calm   1.6 km/h 64 % 0 mm
21:35 16.9 °C 10 °C 1015.5 hPa Calm   1.6 km/h 64 % 0 mm
21:40 16.5 °C 10.1 °C 1015.8 hPa Calm   1.6 km/h 66 % 0 mm
21:45 16.3 °C 10.2 °C 1015.8 hPa Calm   1.6 km/h 67 % 0 mm
21:50 16.3 °C 10.4 °C 1015.8 hPa Calm   1.6 km/h 68 % 0 mm
21:55 16.4 °C 10.7 °C 1015.8 hPa Calm   1.6 km/h 69 % 0 mm
22:00 16.3 °C 10.6 °C 1015.8 hPa Calm   1.6 km/h 69 % 0 mm
22:05 16.3 °C 10.8 °C 1015.8 hPa Calm   1.6 km/h 70 % 0 mm
22:10 16.1 °C 10.4 °C 1015.8 hPa Calm   1.6 km/h 69 % 0 mm
22:15 15.7 °C 10.2 °C 1015.8 hPa Calm   1.6 km/h 70 % 0 mm
22:20 15.6 °C 10.8 °C 1015.8 hPa Calm   1.6 km/h 73 % 0 mm
22:25 15.5 °C 10.7 °C 1015.8 hPa Calm   1.6 km/h 73 % 0 mm
22:30 15.3 °C 10.7 °C 1015.8 hPa Calm   1.6 km/h 74 % 0 mm
22:35 15.1 °C 10.5 °C 1015.8 hPa Calm   1.6 km/h 74 % 0 mm
22:40 14.9 °C 10.5 °C 1015.8 hPa Calm     75 % 0 mm
22:45 14.7 °C 10.7 °C 1015.8 hPa Calm     77 % 0 mm
22:50 14.6 °C 10.8 °C 1015.8 hPa Calm     78 % 0 mm
22:55 14.4 °C 10.4 °C 1015.8 hPa Calm     77 % 0 mm
23:00 14.2 °C 10.2 °C 1015.8 hPa Calm     77 % 0 mm
23:05 14 °C 10.4 °C 1015.8 hPa Calm     79 % 0 mm
23:10 14 °C 10.8 °C 1015.5 hPa Calm   1.6 km/h 81 % 0 mm
23:15 14.1 °C 10.9 °C 1015.5 hPa Calm   1.6 km/h 81 % 0 mm
23:20 14.1 °C 10.7 °C 1015.5 hPa Calm   1.6 km/h 80 % 0 mm
23:25 14.1 °C 10.9 °C 1015.5 hPa Calm     81 % 0 mm
23:30 13.9 °C 10.7 °C 1015.5 hPa Calm     81 % 0 mm
23:35 13.8 °C 11 °C 1015.5 hPa Calm   1.6 km/h 83 % 0 mm
23:40 13.6 °C 10.6 °C 1015.5 hPa Calm   1.6 km/h 82 % 0 mm
23:46 13.4 °C 10.6 °C 1015.5 hPa Calm   1.6 km/h 83 % 0 mm
23:51 13.3 °C 10.7 °C 1015.5 hPa Calm   1.6 km/h 84 % 0 mm
23:56 13.4 °C 10.8 °C 1015.5 hPa Calm   1.6 km/h 84 % 0 mm
Spring, Texas: Villages of Bridgestone
Compliments of Weather Underground - 2.75 mb

Script developed by  Jim McMurry - jmcmurry@mwt.net Adapted for the template by  Wim van der Kuil - Leuven-Template.eu

You find our weather info also at:

UK Metoffice

WeatherCloud

Weather Underground

Mid-South Weather Network

AWEKAS

Citizen Weather Observer Program (CWOP)

HAMweather, WeatherForYou, PWS Weather

Equipment we use:

Weather-station
Davis Vantage Vue

Weather-program
Meteohub

Weather-server
Debian 7.9 x86 (Guest)

Provider
DreamHost

Davis Vantage Vue

Meteohub

Debian 7.9 x86 (Guest)

DreamHost